User: anonymous   Login
Location: Mercogliano
(40.9167°N, 14.7333°E)
Time: 19:02:35
(UTC+00:00)
Language:

Okean-O - Orbit

View from above orbital plane
View from above orbital plane
View from above satellite
View from above satellite

Ground track
Ground track

The orbit data is extracted from the following two-line orbital elements,

1 25860U 99039A   21169.61522756  .00000048  00000-0  14477-4 0  9993
2 25860  98.1821 200.3807 0001799 104.5849 255.5560 14.76740069179558
Epoch (UTC): 18 June 2021 14:45:55
Eccentricity: 0.0001799
inclination: 98.1821°
perigee height: 638 km
apogee height: 641 km
right ascension of ascending node: 200.3807°
argument of perigee: 104.5849°
revolutions per day: 14.76740069
mean anomaly at epoch: 255.5560°
orbit number at epoch: 17955

The dashed part of the orbit path shows where the satellite is in the earth's shadow,  

DLR